QPF
0.00 0.00 0.00 0.00 0.00 0.00 0.01 0.01 0.00 0.01 0.00 0.00 0.00 0.00 0.00 0.00 0.00 0.01 0.01 0.01 0.01 0.01 0.01 0.02 0.02 0.03 0.04 0.07 0.12 0.15 0.17 0.16 0.13 0.09 0.11 0.13 0.13 0.13 0.10 0.08 0.06 0.04 0.02
0.00 0.00 0.00 0.00 0.00 0.00 0.00 0.00 0.00 0.00 0.00 0.00 0.00 0.01 0.01 0.01 0.01 0.01 0.01 0.01 0.01 0.01 0.01 0.01 0.01 0.02 0.03 0.05 0.08 0.11 0.13 0.15 0.17 0.15 0.13 0.14 0.15 0.15 0.13 0.10 0.08 0.05 0.02
0.00 0.00 0.00 0.00 0.00 0.00 0.00 0.00 0.00 0.00 0.00 0.00 0.01 0.01 0.01 0.01 0.02 0.02 0.01 0.01 0.01 0.01 0.01 0.01 0.01 0.01 0.02 0.05 0.07 0.09 0.12 0.13 0.13 0.14 0.15 0.13 0.13 0.15 0.17 0.14 0.09 0.07 0.04
0.00 0.00 0.00 0.00 0.00 0.00 0.00 0.00 0.00 0.00 0.01 0.01 0.01 0.01 0.01 0.02 0.02 0.02 0.02 0.01 0.01 0.01 0.01 0.01 0.01 0.01 0.01 0.03 0.05 0.08 0.11 0.13 0.14 0.15 0.16 0.16 0.14 0.14 0.17 0.15 0.12 0.08 0.05
0.00 0.00 0.00 0.00 0.00 0.00 0.00 0.00 0.00 0.00 0.00 0.01 0.01 0.01 0.01 0.02 0.02 0.02 0.02 0.02 0.01 0.01 0.01 0.01 0.01 0.01 0.01 0.02 0.03 0.05 0.09 0.11 0.14 0.19 0.20 0.19 0.18 0.17 0.13 0.14 0.12 0.08 0.06
0.00 0.00 0.00 0.00 0.00 0.00 0.00 0.00 0.00 0.00 0.00 0.00 0.00 0.01 0.01 0.01 0.01 0.02 0.03 0.03 0.03 0.02 0.02 0.01 0.01 0.01 0.01 0.02 0.02 0.05 0.07 0.10 0.14 0.19 0.24 0.22 0.18 0.17 0.15 0.14 0.13 0.09 0.05
0.00 0.00 0.00 0.00 0.00 0.00 0.00 0.00 0.00 0.00 0.00 0.00 0.00 0.01 0.01 0.01 0.01 0.02 0.03 0.04 0.04 0.04 0.03 0.02 0.01 0.01 0.01 0.02 0.02 0.03 0.07 0.08 0.10 0.15 0.22 0.24 0.23 0.19 0.19 0.15 0.13 0.11 0.07
0.00 0.00 0.00 0.00 0.00 0.00 0.00 0.00 0.00 0.00 0.00 0.00 0.01 0.01 0.01 0.01 0.01 0.02 0.03 0.04 0.05 0.05 0.04 0.03 0.02 0.02 0.02 0.02 0.02 0.02 0.03 0.07 0.08 0.08 0.12 0.19 0.23 0.24 0.21 0.18 0.16 0.15 0.12
0.00 0.00 0.00 0.00 0.00 0.00 0.00 0.00 0.00 0.01 0.01 0.01 0.01 0.01 0.01 0.01 0.01 0.02 0.03 0.03 0.03 0.05 0.04 0.04 0.04 0.02 0.02 0.02 0.02 0.02 0.02 0.04 0.07 0.07 0.08 0.12 0.17 0.23 0.25 0.22 0.16 0.15 0.13
0.00 0.00 0.00 0.00 0.00 0.00 0.00 0.01 0.01 0.01 0.01 0.01 0.01 0.02 0.01 0.02 0.02 0.02 0.03 0.03 0.03 0.04 0.05 0.04 0.05 0.04 0.02 0.03 0.03 0.03 0.02 0.02 0.05 0.07 0.06 0.08 0.12 0.15 0.19 0.22 0.17 0.14 0.13
0.00 0.00 0.00 0.00 0.01 0.01 0.01 0.01 0.02 0.02 0.02 0.02 0.02 0.02 0.02 0.02 0.02 0.02 0.03 0.03 0.03 0.04 0.06 0.05 0.05 0.05 0.03 0.02 0.02 0.03 0.03 0.02 0.03 0.06 0.07 0.07 0.08 0.10 0.11 0.15 0.19 0.14 0.12
0.00 0.00 0.00 0.00 0.01 0.00 0.01 0.01 0.01 0.01 0.01 0.01 0.02 0.02 0.02 0.02 0.01 0.01 0.02 0.03 0.04 0.05 0.06 0.05 0.05 0.05 0.04 0.02 0.02 0.02 0.03 0.02 0.02 0.03 0.06 0.07 0.07 0.07 0.07 0.09 0.14 0.16 0.13
0.00 0.00 0.00 0.00 0.01 0.01 0.01 0.01 0.01 0.01 0.02 0.02 0.02 0.02 0.02 0.02 0.02 0.01 0.01 0.01 0.02 0.02 0.03 0.04 0.04 0.04 0.03 0.02 0.01 0.01 0.02 0.02 0.02 0.02 0.03 0.06 0.06 0.05 0.07 0.09 0.10 0.13 0.13
0.00 0.00 0.00 0.00 0.00 0.01 0.01 0.01 0.01 0.02 0.02 0.02 0.02 0.02 0.02 0.02 0.02 0.02 0.01 0.01 0.01 0.01 0.01 0.02 0.03 0.03 0.03 0.02 0.02 0.01 0.01 0.02 0.02 0.02 0.01 0.04 0.07 0.06 0.08 0.09 0.09 0.09 0.11
0.00 0.00 0.00 0.01 0.01 0.01 0.01 0.01 0.02 0.02 0.02 0.02 0.02 0.01 0.02 0.02 0.02 0.02 0.02 0.02 0.02 0.01 0.02 0.02 0.03 0.03 0.02 0.02 0.02 0.02 0.01 0.01 0.02 0.01 0.01 0.02 0.05 0.07 0.07 0.10 0.09 0.09 0.09
0.00 0.00 0.00 0.01 0.01 0.01 0.01 0.01 0.02 0.01 0.01 0.01 0.01 0.01 0.01 0.01 0.02 0.02 0.02 0.03 0.03 0.03 0.03 0.03 0.04 0.04 0.03 0.03 0.03 0.02 0.01 0.01 0.01 0.01 0.01 0.01 0.03 0.07 0.07 0.09 0.10 0.09 0.08
0.00 0.01 0.01 0.01 0.01 0.02 0.02 0.02 0.03 0.02 0.01 0.01 0.01 0.01 0.02 0.02 0.02 0.02 0.02 0.03 0.03 0.03 0.03 0.03 0.04 0.04 0.04 0.04 0.03 0.03 0.02 0.01 0.01 0.01 0.01 0.01 0.03 0.07 0.08 0.09 0.09 0.08 0.08
0.00 0.01 0.01 0.01 0.01 0.02 0.02 0.03 0.03 0.02 0.02 0.01 0.01 0.01 0.02 0.02 0.02 0.03 0.03 0.02 0.02 0.03 0.04 0.04 0.03 0.03 0.03 0.04 0.03 0.03 0.02 0.02 0.02 0.02 0.02 0.02 0.03 0.07 0.09 0.09 0.08 0.06 0.07
0.00 0.01 0.01 0.01 0.02 0.02 0.03 0.03 0.02 0.02 0.03 0.02 0.02 0.01 0.01 0.02 0.03 0.03 0.03 0.03 0.03 0.04 0.05 0.05 0.04 0.03 0.03 0.04 0.04 0.04 0.03 0.03 0.02 0.02 0.02 0.02 0.04 0.07 0.09 0.09 0.08 0.07 0.07
0.00 0.01 0.01 0.01 0.02 0.02 0.02 0.02 0.02 0.02 0.03 0.03 0.03 0.02 0.02 0.03 0.03 0.04 0.03 0.03 0.03 0.04 0.04 0.04 0.04 0.05 0.05 0.04 0.04 0.03 0.04 0.04 0.03 0.02 0.03 0.04 0.05 0.10 0.10 0.07 0.08 0.07 0.06
0.00 0.01 0.01 0.01 0.02 0.02 0.02 0.02 0.02 0.03 0.03 0.03 0.03 0.02 0.02 0.03 0.04 0.04 0.04 0.04 0.04 0.03 0.03 0.03 0.04 0.04 0.04 0.04 0.04 0.03 0.03 0.03 0.03 0.03 0.04 0.06 0.10 0.12 0.09 0.06 0.06 0.07 0.07
0.01 0.01 0.01 0.01 0.02 0.02 0.01 0.02 0.02 0.02 0.03 0.03 0.02 0.01 0.02 0.03 0.04 0.05 0.04 0.04 0.03 0.03 0.03 0.03 0.03 0.03 0.03 0.04 0.04 0.04 0.03 0.04 0.05 0.06 0.07 0.09 0.13 0.12 0.09 0.07 0.07 0.08 0.09
0.01 0.01 0.01 0.01 0.02 0.01 0.02 0.02 0.02 0.02 0.02 0.02 0.02 0.02 0.03 0.04 0.04 0.04 0.04 0.04 0.04 0.03 0.03 0.03 0.03 0.04 0.04 0.05 0.05 0.04 0.04 0.05 0.06 0.08 0.09 0.10 0.11 0.10 0.10 0.09 0.08 0.09 0.10
0.01 0.01 0.01 0.01 0.01 0.01 0.01 0.02 0.02 0.02 0.02 0.02 0.02 0.02 0.03 0.04 0.05 0.04 0.04 0.04 0.04 0.03 0.02 0.02 0.03 0.04 0.05 0.06 0.05 0.04 0.05 0.07 0.09 0.09 0.09 0.10 0.11 0.11 0.12 0.12 0.10 0.11 0.13
0.01 0.01 0.01 0.01 0.01 0.01 0.01 0.02 0.02 0.02 0.02 0.02 0.02 0.03 0.04 0.05 0.06 0.05 0.05 0.04 0.04 0.04 0.03 0.03 0.03 0.03 0.04 0.04 0.04 0.05 0.06 0.07 0.08 0.08 0.08 0.10 0.13 0.13 0.13 0.13 0.12 0.12 0.13
0.00 0.01 0.01 0.01 0.01 0.01 0.01 0.02 0.02 0.02 0.02 0.02 0.02 0.02 0.03 0.05 0.07 0.07 0.05 0.04 0.05 0.05 0.04 0.04 0.04 0.03 0.03 0.03 0.04 0.04 0.05 0.05 0.06 0.07 0.08 0.10 0.13 0.13 0.11 0.11 0.12 0.11 0.11
MSLP
1013.27 1013.21 1013.19 1013.15 1013.05 1012.85 1012.56 1012.18 1011.75 1011.30 1010.86 1010.47 1010.13 1009.83 1009.56 1009.31 1009.06 1008.82 1008.59 1008.40 1008.26 1008.20 1008.23 1008.34 1008.53 1008.77 1009.02 1009.25 1009.42 1009.52 1009.55 1009.51 1009.41 1009.30 1009.20 1009.15 1009.16 1009.26 1009.46 1009.76 1010.15 1010.62 1011.14
1013.13 1013.00 1012.90 1012.79 1012.64 1012.42 1012.12 1011.76 1011.37 1010.96 1010.56 1010.19 1009.86 1009.56 1009.27 1008.99 1008.72 1008.45 1008.19 1007.98 1007.83 1007.76 1007.78 1007.90 1008.11 1008.36 1008.65 1008.92 1009.16 1009.34 1009.45 1009.50 1009.49 1009.46 1009.42 1009.40 1009.43 1009.52 1009.71 1009.98 1010.34 1010.79 1011.29
1012.96 1012.76 1012.58 1012.39 1012.17 1011.90 1011.58 1011.23 1010.85 1010.46 1010.10 1009.76 1009.44 1009.14 1008.85 1008.57 1008.28 1007.99 1007.73 1007.50 1007.34 1007.26 1007.28 1007.39 1007.59 1007.85 1008.15 1008.46 1008.75 1009.00 1009.20 1009.34 1009.43 1009.48 1009.51 1009.55 1009.62 1009.75 1009.93 1010.20 1010.55 1010.98 1011.47
1012.77 1012.50 1012.24 1011.96 1011.67 1011.34 1010.98 1010.59 1010.21 1009.84 1009.49 1009.16 1008.86 1008.58 1008.30 1008.02 1007.73 1007.45 1007.18 1006.96 1006.79 1006.71 1006.72 1006.82 1007.01 1007.27 1007.57 1007.90 1008.23 1008.53 1008.80 1009.01 1009.19 1009.33 1009.45 1009.56 1009.68 1009.84 1010.06 1010.34 1010.69 1011.11 1011.60
1012.57 1012.24 1011.90 1011.54 1011.16 1010.75 1010.33 1009.91 1009.50 1009.12 1008.77 1008.46 1008.17 1007.89 1007.63 1007.36 1007.09 1006.82 1006.57 1006.36 1006.21 1006.13 1006.13 1006.23 1006.41 1006.66 1006.96 1007.29 1007.64 1007.97 1008.28 1008.56 1008.80 1009.01 1009.20 1009.38 1009.57 1009.78 1010.02 1010.33 1010.69 1011.12 1011.61
1012.38 1011.99 1011.58 1011.14 1010.67 1010.19 1009.70 1009.22 1008.78 1008.38 1008.02 1007.70 1007.41 1007.15 1006.89 1006.64 1006.39 1006.14 1005.92 1005.74 1005.61 1005.55 1005.56 1005.66 1005.84 1006.08 1006.37 1006.69 1007.03 1007.37 1007.70 1008.01 1008.30 1008.57 1008.81 1009.05 1009.28 1009.54 1009.82 1010.15 1010.54 1010.99 1011.49
1012.19 1011.76 1011.28 1010.77 1010.22 1009.66 1009.11 1008.59 1008.11 1007.67 1007.29 1006.96 1006.67 1006.41 1006.15 1005.91 1005.68 1005.46 1005.27 1005.12 1005.02 1004.99 1005.03 1005.14 1005.32 1005.56 1005.84 1006.15 1006.48 1006.81 1007.14 1007.46 1007.76 1008.06 1008.33 1008.61 1008.88 1009.17 1009.49 1009.85 1010.26 1010.72 1011.24
1011.98 1011.51 1010.99 1010.42 1009.82 1009.21 1008.61 1008.05 1007.53 1007.08 1006.68 1006.33 1006.02 1005.74 1005.49 1005.25 1005.03 1004.83 1004.67 1004.55 1004.49 1004.49 1004.57 1004.70 1004.90 1005.14 1005.41 1005.71 1006.02 1006.34 1006.65 1006.96 1007.26 1007.56 1007.85 1008.14 1008.44 1008.75 1009.09 1009.47 1009.89 1010.37 1010.90
1011.74 1011.24 1010.69 1010.08 1009.45 1008.82 1008.20 1007.62 1007.09 1006.62 1006.20 1005.84 1005.51 1005.22 1004.95 1004.70 1004.48 1004.29 1004.15 1004.06 1004.04 1004.08 1004.19 1004.36 1004.57 1004.82 1005.10 1005.39 1005.69 1005.99 1006.28 1006.57 1006.86 1007.15 1007.43 1007.73 1008.03 1008.35 1008.69 1009.08 1009.50 1009.98 1010.52
1011.45 1010.94 1010.37 1009.76 1009.12 1008.49 1007.88 1007.30 1006.78 1006.31 1005.89 1005.51 1005.17 1004.85 1004.56 1004.30 1004.07 1003.88 1003.75 1003.68 1003.69 1003.77 1003.91 1004.11 1004.35 1004.62 1004.90 1005.19 1005.48 1005.76 1006.03 1006.30 1006.57 1006.85 1007.12 1007.41 1007.71 1008.02 1008.36 1008.74 1009.15 1009.62 1010.14
1011.13 1010.61 1010.04 1009.43 1008.82 1008.21 1007.63 1007.08 1006.59 1006.13 1005.72 1005.34 1004.99 1004.65 1004.34 1004.06 1003.81 1003.62 1003.50 1003.44 1003.47 1003.57 1003.74 1003.97 1004.23 1004.51 1004.80 1005.09 1005.36 1005.63 1005.89 1006.14 1006.39 1006.65 1006.91 1007.19 1007.48 1007.78 1008.11 1008.47 1008.86 1009.30 1009.79
1010.78 1010.26 1009.69 1009.11 1008.53 1007.96 1007.43 1006.93 1006.47 1006.05 1005.66 1005.28 1004.93 1004.59 1004.26 1003.97 1003.72 1003.52 1003.39 1003.35 1003.39 1003.51 1003.69 1003.93 1004.19 1004.48 1004.77 1005.04 1005.30 1005.55 1005.79 1006.03 1006.27 1006.52 1006.77 1007.04 1007.32 1007.62 1007.93 1008.26 1008.63 1009.03 1009.47
1010.44 1009.91 1009.36 1008.80 1008.26 1007.74 1007.25 1006.81 1006.40 1006.01 1005.65 1005.30 1004.96 1004.62 1004.30 1004.01 1003.75 1003.56 1003.44 1003.40 1003.44 1003.56 1003.74 1003.97 1004.23 1004.49 1004.76 1005.01 1005.25 1005.47 1005.69 1005.91 1006.14 1006.38 1006.63 1006.90 1007.18 1007.47 1007.77 1008.09 1008.42 1008.78 1009.17
1010.13 1009.59 1009.05 1008.51 1008.00 1007.53 1007.09 1006.69 1006.33 1005.99 1005.66 1005.34 1005.02 1004.71 1004.41 1004.13 1003.89 1003.72 1003.60 1003.57 1003.61 1003.72 1003.88 1004.08 1004.30 1004.52 1004.74 1004.95 1005.14 1005.33 1005.52 1005.72 1005.94 1006.17 1006.43 1006.71 1007.00 1007.29 1007.59 1007.89 1008.20 1008.52 1008.86
1009.86 1009.32 1008.78 1008.25 1007.77 1007.32 1006.92 1006.56 1006.24 1005.93 1005.64 1005.36 1005.08 1004.80 1004.53 1004.29 1004.09 1003.94 1003.85 1003.82 1003.85 1003.94 1004.07 1004.21 1004.37 1004.53 1004.68 1004.82 1004.95 1005.09 1005.24 1005.41 1005.61 1005.85 1006.12 1006.41 1006.72 1007.04 1007.35 1007.65 1007.94 1008.23 1008.53
1009.64 1009.09 1008.54 1008.03 1007.55 1007.12 1006.74 1006.41 1006.11 1005.84 1005.58 1005.33 1005.09 1004.86 1004.64 1004.45 1004.29 1004.17 1004.11 1004.09 1004.11 1004.17 1004.24 1004.33 1004.41 1004.48 1004.53 1004.59 1004.64 1004.72 1004.82 1004.96 1005.16 1005.40 1005.68 1006.00 1006.34 1006.68 1007.01 1007.33 1007.63 1007.91 1008.18
1009.46 1008.90 1008.35 1007.83 1007.36 1006.93 1006.56 1006.24 1005.95 1005.70 1005.46 1005.24 1005.04 1004.85 1004.69 1004.55 1004.44 1004.36 1004.32 1004.31 1004.32 1004.34 1004.36 1004.36 1004.36 1004.33 1004.29 1004.25 1004.22 1004.23 1004.28 1004.40 1004.58 1004.82 1005.13 1005.48 1005.85 1006.23 1006.60 1006.94 1007.26 1007.54 1007.81
1009.30 1008.73 1008.18 1007.66 1007.19 1006.77 1006.39 1006.07 1005.78 1005.53 1005.31 1005.11 1004.93 1004.78 1004.66 1004.56 1004.49 1004.45 1004.42 1004.41 1004.41 1004.39 1004.35 1004.28 1004.19 1004.07 1003.93 1003.81 1003.71 1003.65 1003.66 1003.75 1003.92 1004.18 1004.51 1004.89 1005.30 1005.72 1006.13 1006.51 1006.85 1007.16 1007.43
1009.15 1008.59 1008.04 1007.53 1007.06 1006.63 1006.26 1005.92 1005.63 1005.37 1005.14 1004.95 1004.78 1004.65 1004.55 1004.48 1004.43 1004.40 1004.39 1004.37 1004.34 1004.29 1004.19 1004.06 1003.89 1003.69 1003.48 1003.28 1003.12 1003.02 1003.00 1003.08 1003.25 1003.52 1003.87 1004.28 1004.73 1005.19 1005.64 1006.05 1006.42 1006.75 1007.04
1009.01 1008.47 1007.94 1007.44 1006.98 1006.56 1006.18 1005.83 1005.52 1005.25 1005.00 1004.79 1004.62 1004.49 1004.38 1004.31 1004.27 1004.24 1004.22 1004.19 1004.13 1004.03 1003.89 1003.70 1003.47 1003.21 1002.95 1002.71 1002.52 1002.39 1002.36 1002.43 1002.61 1002.90 1003.27 1003.71 1004.18 1004.67 1005.14 1005.58 1005.98 1006.33 1006.63
1008.89 1008.39 1007.89 1007.42 1006.98 1006.57 1006.18 1005.83 1005.50 1005.20 1004.93 1004.69 1004.49 1004.33 1004.21 1004.12 1004.05 1004.00 1003.95 1003.89 1003.79 1003.66 1003.47 1003.25 1002.98 1002.69 1002.40 1002.14 1001.94 1001.81 1001.78 1001.86 1002.05 1002.35 1002.74 1003.19 1003.68 1004.18 1004.67 1005.12 1005.53 1005.89 1006.21
1008.82 1008.37 1007.92 1007.49 1007.07 1006.68 1006.30 1005.93 1005.59 1005.26 1004.95 1004.68 1004.44 1004.24 1004.07 1003.94 1003.83 1003.74 1003.65 1003.55 1003.41 1003.24 1003.03 1002.78 1002.49 1002.19 1001.90 1001.64 1001.44 1001.33 1001.31 1001.40 1001.61 1001.91 1002.30 1002.75 1003.23 1003.73 1004.20 1004.65 1005.06 1005.42 1005.74
1008.83 1008.43 1008.04 1007.66 1007.28 1006.90 1006.53 1006.16 1005.80 1005.44 1005.10 1004.78 1004.50 1004.25 1004.03 1003.84 1003.69 1003.55 1003.41 1003.26 1003.09 1002.89 1002.65 1002.38 1002.09 1001.79 1001.51 1001.27 1001.09 1000.99 1000.98 1001.08 1001.28 1001.58 1001.95 1002.38 1002.84 1003.30 1003.76 1004.18 1004.57 1004.92 1005.23
1008.94 1008.60 1008.27 1007.93 1007.59 1007.23 1006.87 1006.50 1006.12 1005.74 1005.37 1005.02 1004.69 1004.39 1004.12 1003.89 1003.68 1003.49 1003.30 1003.11 1002.91 1002.68 1002.42 1002.14 1001.85 1001.56 1001.29 1001.06 1000.89 1000.80 1000.80 1000.90 1001.08 1001.35 1001.69 1002.08 1002.49 1002.91 1003.32 1003.71 1004.07 1004.40 1004.70
1009.13 1008.87 1008.59 1008.29 1007.98 1007.64 1007.28 1006.91 1006.52 1006.13 1005.74 1005.36 1005.00 1004.67 1004.37 1004.10 1003.85 1003.62 1003.40 1003.17 1002.93 1002.68 1002.41 1002.12 1001.82 1001.54 1001.27 1001.05 1000.88 1000.78 1000.77 1000.84 1000.99 1001.21 1001.50 1001.83 1002.18 1002.55 1002.91 1003.25 1003.58 1003.88 1004.18
1009.41 1009.20 1008.97 1008.70 1008.41 1008.09 1007.74 1007.37 1006.98 1006.58 1006.18 1005.79 1005.42 1005.08 1004.76 1004.47 1004.20 1003.95 1003.70 1003.45 1003.19 1002.92 1002.63 1002.33 1002.02 1001.73 1001.45 1001.22 1001.03 1000.91 1000.86 1000.88 1000.98 1001.14 1001.36 1001.62 1001.91 1002.22 1002.53 1002.84 1003.14 1003.43 1003.72
Thickness
5643 5639 5634 5631 5628 5624 5621 5618 5616 5614 5613 5611 5611 5610 5610 5610 5611 5612 5613 5615 5616 5618 5621 5624 5628 5631 5634 5638 5641 5644 5648 5653 5657 5667 5676 5683 5688 5693 5697 5700 5703 5705 5707
5634 5630 5625 5621 5618 5614 5611 5609 5607 5604 5603 5601 5599 5598 5598 5598 5599 5599 5600 5603 5605 5607 5610 5613 5616 5621 5623 5627 5630 5634 5639 5644 5649 5655 5664 5671 5677 5683 5687 5690 5693 5696 5698
5627 5621 5616 5612 5608 5604 5601 5599 5597 5594 5592 5590 5588 5586 5586 5586 5586 5587 5588 5590 5593 5596 5599 5601 5605 5608 5612 5616 5619 5623 5629 5635 5641 5647 5654 5661 5666 5672 5676 5679 5683 5686 5690
5619 5614 5609 5604 5600 5596 5593 5590 5587 5584 5582 5579 5577 5576 5575 5574 5574 5575 5576 5578 5580 5583 5587 5591 5594 5597 5601 5605 5609 5613 5618 5623 5629 5636 5643 5649 5655 5661 5666 5668 5671 5675 5679
5612 5606 5602 5598 5593 5589 5585 5582 5578 5575 5573 5570 5567 5565 5563 5563 5563 5563 5563 5565 5567 5569 5573 5578 5583 5587 5591 5595 5600 5603 5607 5612 5618 5624 5632 5638 5644 5649 5655 5660 5663 5665 5668
5605 5600 5596 5591 5586 5581 5577 5574 5570 5566 5563 5560 5557 5555 5553 5554 5554 5553 5552 5552 5554 5556 5559 5564 5569 5574 5580 5585 5590 5595 5599 5603 5607 5614 5621 5628 5635 5641 5646 5650 5654 5656 5659
5599 5594 5589 5584 5579 5575 5571 5567 5563 5559 5555 5552 5549 5546 5544 5544 5543 5542 5542 5541 5541 5543 5545 5549 5556 5563 5567 5571 5577 5584 5589 5595 5601 5606 5612 5619 5626 5633 5637 5640 5645 5649 5653
5593 5588 5583 5578 5573 5569 5564 5560 5556 5552 5548 5544 5541 5539 5536 5535 5534 5533 5532 5531 5530 5532 5534 5538 5542 5548 5554 5558 5563 5569 5575 5583 5591 5598 5605 5611 5617 5623 5630 5634 5637 5639 5644
5588 5582 5577 5572 5568 5563 5559 5554 5550 5545 5541 5537 5534 5531 5529 5528 5526 5524 5522 5520 5520 5521 5524 5528 5532 5536 5543 5548 5551 5556 5562 5569 5577 5586 5594 5600 5606 5613 5619 5622 5624 5628 5632
5583 5578 5572 5567 5562 5557 5553 5549 5545 5540 5536 5532 5529 5526 5523 5521 5519 5517 5515 5512 5512 5513 5515 5519 5524 5528 5532 5537 5541 5546 5550 5557 5565 5574 5581 5588 5594 5601 5608 5614 5618 5621 5625
5578 5573 5568 5562 5557 5553 5549 5544 5539 5535 5531 5527 5523 5521 5518 5515 5514 5512 5510 5506 5506 5507 5509 5512 5516 5521 5524 5528 5533 5538 5544 5548 5554 5561 5568 5575 5582 5590 5597 5604 5610 5615 5618
5574 5568 5563 5558 5554 5551 5544 5540 5535 5530 5525 5521 5518 5515 5513 5510 5509 5507 5506 5504 5503 5503 5505 5508 5511 5515 5518 5520 5525 5531 5535 5539 5543 5549 5556 5564 5572 5579 5587 5594 5600 5606 5613
5569 5563 5559 5554 5550 5545 5540 5536 5532 5527 5521 5517 5513 5510 5509 5507 5505 5504 5503 5502 5501 5501 5502 5505 5507 5510 5512 5515 5519 5524 5527 5530 5534 5540 5548 5556 5565 5572 5578 5583 5589 5595 5601
5565 5560 5556 5551 5547 5543 5538 5534 5529 5524 5520 5515 5511 5508 5506 5504 5502 5501 5500 5499 5499 5499 5499 5501 5503 5506 5508 5511 5514 5517 5521 5525 5530 5535 5542 5549 5555 5563 5569 5575 5581 5586 5591
5562 5558 5553 5549 5544 5540 5537 5533 5529 5525 5519 5515 5511 5507 5504 5503 5501 5500 5498 5498 5498 5497 5497 5497 5498 5500 5503 5506 5509 5512 5516 5520 5525 5530 5536 5542 5549 5556 5563 5569 5575 5580 5585
5560 5556 5552 5547 5543 5539 5535 5533 5531 5527 5523 5519 5514 5508 5505 5503 5502 5500 5499 5498 5497 5496 5496 5496 5498 5500 5502 5505 5507 5510 5513 5517 5523 5528 5533 5539 5546 5552 5557 5563 5569 5574 5579
5558 5554 5550 5546 5542 5538 5534 5531 5529 5529 5526 5522 5518 5513 5508 5505 5503 5501 5500 5498 5497 5496 5496 5497 5499 5501 5503 5506 5509 5512 5515 5519 5523 5527 5532 5537 5543 5548 5553 5559 5564 5569 5574
5558 5555 5550 5546 5542 5538 5535 5532 5529 5526 5524 5523 5521 5516 5512 5508 5506 5503 5501 5499 5499 5498 5499 5500 5502 5504 5506 5509 5511 5514 5517 5520 5523 5527 5532 5536 5541 5545 5550 5555 5560 5565 5570
5558 5554 5551 5547 5543 5540 5536 5533 5530 5528 5525 5523 5521 5519 5515 5512 5509 5506 5503 5501 5502 5503 5504 5505 5507 5508 5510 5512 5514 5516 5518 5521 5524 5528 5532 5536 5540 5543 5548 5552 5557 5561 5566
5558 5556 5553 5548 5544 5541 5538 5535 5532 5530 5527 5525 5522 5520 5517 5514 5512 5510 5508 5506 5506 5507 5508 5510 5512 5513 5515 5516 5517 5519 5520 5523 5525 5528 5532 5536 5539 5542 5546 5550 5555 5559 5563
5557 5555 5553 5548 5545 5542 5539 5536 5533 5531 5529 5527 5525 5524 5521 5518 5516 5515 5514 5513 5513 5513 5513 5514 5515 5516 5518 5519 5520 5522 5524 5525 5527 5530 5532 5535 5538 5541 5545 5549 5553 5557 5561
5556 5553 5551 5548 5546 5543 5540 5537 5535 5533 5531 5529 5528 5527 5525 5522 5521 5520 5519 5518 5518 5518 5517 5517 5517 5518 5520 5522 5523 5525 5526 5528 5529 5531 5533 5536 5538 5542 5544 5547 5551 5555 5558
5556 5553 5551 5548 5546 5543 5541 5538 5536 5534 5533 5531 5530 5529 5528 5526 5525 5524 5523 5523 5522 5521 5520 5520 5520 5521 5522 5524 5525 5527 5528 5530 5532 5533 5535 5537 5539 5542 5545 5548 5550 5553 5557
5556 5554 5551 5548 5545 5542 5540 5538 5537 5535 5534 5532 5531 5530 5529 5528 5527 5527 5526 5525 5525 5524 5523 5523 5523 5523 5524 5525 5526 5527 5528 5530 5532 5534 5536 5538 5540 5542 5545 5548 5550 5553 5556
5556 5553 5550 5546 5544 5542 5540 5538 5536 5535 5534 5533 5532 5531 5530 5529 5528 5528 5527 5527 5527 5526 5525 5525 5524 5524 5525 5526 5527 5527 5529 5530 5532 5535 5536 5539 5541 5543 5546 5549 5551 5553 5555
5555 5552 5548 5545 5543 5541 5539 5537 5536 5535 5534 5533 5532 5531 5530 5530 5529 5528 5528 5528 5528 5527 5526 5525 5525 5526 5526 5527 5528 5528 5529 5531 5533 5536 5539 5540 5542 5545 5548 5550 5553 5555 5556